sat.trackr.live / text

‹ back to catalog

SUPERVIEW NEO-3 02

NORAD 63208 · 2025-051A

PAYLOAD ACTIVE UNKNOWN

§ Identity

Operator
Country
PRC
Launch date
2025-03-15
Launch site
JSC
Launch vehicle
Mass (kg)
RCS (m²)

External: N2YO · Heavens-Above · Gunter

§ Orbital elements

Epoch: 2026-05-25T05:18:09.798336Z

Period
94.45 min
Inclination
97.4515°
Eccentricity
0.0001152
Mean motion
15.24646948 rev/d
Perigee alt
491.1 km
Apogee alt
492.6 km
Semi-major
6,870.0 km
B*
4.0621e-4
RAAN
224.6445°
Arg perigee
136.4589°
Mean anomaly
223.6739°
Rev number
6,634

§ Raw data

SUPERVIEW NEO-3 021 63208U 25051A   26145.22094674  .00009963  00000+0  40621-3 0  99962 63208  97.4515 224.6445 0001152 136.4589 223.6739 15.24646948 66344

JSON: /api/v1/satellites/63208 · /tle

For live sub-satellite position, see the globe view (requires WebGL).

§ Visibility from observer

Set your observer location to see the next 7 days of passes ≥ 10°. The values pass through the URL so the page stays shareable.

No JS? Fill the form by hand. The geolocation button needs JavaScript.